Date,Time,Air Temperature,Dewpoint,Windchill,Heat Index,RH,3m Max Wind Speed,3m Mean Wind Speed,3m Wind Direction,Rain,Solar Radiation
,,F,F,F,F,%,MPH,MPH,deg,in,MJ/m^2
2024-05-14,18:20,67.2,49.4,,67.2,52.9,14.9,10.2,260,0.0,0.00954
2024-05-14,18:25,66.8,49.8,,66.8,54.4,11.1,8.6,279,0.0,0.0093
2024-05-14,18:30,66.9,49.6,,66.9,53.8,9.5,6.9,273,0.0,0.0093
2024-05-14,18:35,67.6,49.1,,67.6,51.5,10.4,7.6,284,0.0,0.0093
2024-05-14,18:40,66.6,49.4,,66.6,53.9,11.5,7.3,294,0.0,0.00948
2024-05-14,18:45,65,51.2,,65,61.0,8.4,6.5,289,0.0,0.01026
2024-05-14,18:50,65.6,51.2,,65.6,59.7,8,5.4,278,0.0,0.01104
2024-05-14,18:55,66.4,50.4,,66.4,56.4,7.5,5.5,296,0.0,0.01104
2024-05-14,19:00,66.8,50.5,,66.8,55.7,6,4.5,232,0.0,0.01008
2024-05-14,19:05,68.2,48.7,,68.2,49.7,7,5,236,0.0,0.00852
2024-05-14,19:10,68.3,48.3,,68.3,48.8,5.7,4.4,239,0.0,0.0069
2024-05-14,19:15,68.3,48.3,,68.3,48.8,5.2,4.3,240,0.0,0.0057
2024-05-14,19:20,68,48.4,,68,49.5,4.5,3.8,245,0.0,0.00462
2024-05-14,19:25,67.5,48.9,,67.5,51.3,6.1,4.3,257,0.0,0.0036
2024-05-14,19:30,67.2,49.4,,67.2,52.9,5.1,4.4,257,0.0,0.00258
2024-05-14,19:35,66.8,49.8,,66.8,54.3,6.5,4.5,257,0.0,0.00174
2024-05-14,19:40,66.4,49.9,,66.4,55.2,6.6,5.4,264,0.0,0.0015
2024-05-14,19:45,66.4,49.6,,66.4,54.7,7.7,6,246,0.0,0.00072
2024-05-14,19:50,66.5,49.9,,66.5,55.3,7.3,5.1,226,0.0,0.00042
2024-05-14,19:55,67.5,48.8,,67.5,51.1,12.2,8.5,197,0.0,0
2024-05-14,20:00,68,48.4,,68,49.4,13.2,10.9,198,0.0,0
2024-05-14,20:05,68.4,47.6,,68.4,47.4,13.2,10.2,199,0.0,0
2024-05-14,20:10,68.3,48,,68.3,48.2,18.4,12.6,182,0.0,0
2024-05-14,20:15,70.7,45.9,,70.7,41.1,21.3,15.8,171,0.0,0
2024-05-14,20:20,71,45.1,,71,39.5,19.5,13.6,194,0.0,0
2024-05-14,20:25,70.7,45.3,,70.7,40.2,15.1,12.1,197,0.0,0
2024-05-14,20:30,70.3,45.4,,70.3,40.8,13.2,9.1,226,0.0,0
2024-05-14,20:35,68,46.9,,68,46.9,8.8,6.4,251,0.0,0
2024-05-14,20:40,66.3,48.8,,66.3,53.1,6.7,5,247,0.0,0
2024-05-14,20:45,67.4,47,,67.4,47.9,6.9,5.5,229,0.0,0
2024-05-14,20:50,67.2,46.4,,67.2,47.1,7,5.5,240,0.0,0
2024-05-14,20:55,66.6,46.5,,66.6,48.4,6.7,6,253,0.0,0
2024-05-14,21:00,65.9,46.4,,65.9,49.5,6.9,5.9,241,0.0,0
2024-05-14,21:05,65.1,46.5,,65.1,51.0,9.1,6.9,218,0.0,0
2024-05-14,21:10,68.7,45,,68.7,42.5,16,9.9,204,0.0,0
2024-05-14,21:15,67.6,45.2,,67.6,44.5,8.7,7.2,231,0.0,0
2024-05-14,21:20,66.8,45.6,,66.8,46.4,8.7,6.9,234,0.0,0
2024-05-14,21:25,67.3,45.2,,67.3,45.0,11.5,8.3,231,0.0,0
2024-05-14,21:30,67.4,45,,67.4,44.4,10.8,8.1,226,0.0,0
2024-05-14,21:35,67.4,44.8,,67.4,44.1,9.6,8.2,240,0.0,0
2024-05-14,21:40,67.5,44.8,,67.5,43.8,10,8.2,250,0.0,0
2024-05-14,21:45,67.1,44.7,,67.1,44.4,10.3,8.1,258,0.0,0
2024-05-14,21:50,65.5,45.3,,65.5,48,9.8,7,265,0.0,0
2024-05-14,21:55,62.9,46.7,,62.9,55.4,9.4,7.1,269,0.0,0
2024-05-14,22:00,62.9,47.4,,62.9,57.0,9.1,7.5,262,0.0,0
2024-05-14,22:05,62.6,47.2,,62.6,57.1,9.8,7.1,251,0.0,0
2024-05-14,22:10,63.5,46,,63.5,52.8,10.7,8.2,249,0.0,0
2024-05-14,22:15,62.7,45.7,,62.7,53.9,10.9,8.3,263,0.0,0
2024-05-14,22:20,60.3,47.2,,60.3,61.9,12.4,8.9,280,0.0,0
2024-05-14,22:25,59.9,47.6,,59.9,63.6,11.2,8.5,292,0.0,0
2024-05-14,22:30,59.6,47.8,,59.6,64.8,11.3,9.3,284,0.0,0
2024-05-14,22:35,59.6,47.6,,59.6,64.5,11.3,8.5,279,0.0,0
2024-05-14,22:40,59.9,47.4,,59.9,63.2,9.9,8.1,274,0.0,0
2024-05-14,22:45,60.3,47.2,,60.3,61.9,11.7,9.1,272,0.0,0
2024-05-14,22:50,60.5,46.7,,60.5,60.2,11.7,8.8,278,0.0,0
2024-05-14,22:55,59.9,46.7,,59.9,61.7,10.9,8.6,284,0.0,0
2024-05-14,23:00,59.1,47.1,,59.1,64.3,9.5,7.6,287,0.0,0
2024-05-14,23:05,59.7,47,,59.7,62.7,10,7.8,275,0.0,0
2024-05-14,23:10,60.8,46.8,,60.8,59.8,9.9,7.1,272,0.0,0
2024-05-14,23:15,62.5,46.3,,62.5,55.5,15,8.4,249,0.0,0
2024-05-14,23:20,64.1,45.8,,64.1,51.3,10.9,7.3,268,0.0,0
2024-05-14,23:25,63,46.5,,63,54.9,8.9,7.4,285,0.0,0
2024-05-14,23:30,61.2,47.2,,61.2,60.1,10.8,7.9,290,0.0,0
2024-05-14,23:35,60.2,47.6,,60.2,62.9,10.9,8.9,291,0.0,0
2024-05-14,23:40,60.7,46.8,,60.7,60.3,9.7,7.9,292,0.0,0
2024-05-14,23:45,61.2,46.3,,61.2,58.0,9.8,8,291,0.0,0
2024-05-14,23:50,62.4,45.6,,62.4,54.1,9.8,8.1,300,0.0,0
2024-05-14,23:55,63.1,44.9,,63.1,51.4,11.9,8.9,309,0.0,0
2024-05-15,00:00,62.4,45.3,,62.4,53.5,12.7,8.9,295,0.0,0
2024-05-15,00:05,62.1,45.4,,62.1,54.4,11.3,7.7,293,0.0,0
2024-05-15,00:10,60.7,44.3,,60.7,54.9,7.4,5.9,286,0.0,0
2024-05-15,00:15,60.5,45.4,,60.5,57.5,15.6,8.9,347,0.0,0
2024-05-15,00:20,60.3,45.2,,60.3,57.4,9.5,7.5,335,0.0,0
2024-05-15,00:25,59.3,45.4,,59.3,60.0,9.1,6.7,331,0.0,0
2024-05-15,00:30,58.7,45.4,,58.7,61.3,9.9,7.3,318,0.0,0
2024-05-15,00:35,58.7,45.1,,58.7,60.5,11.5,8.4,335,0.0,0
2024-05-15,00:40,58.6,45,,58.6,60.6,11.8,7.6,347,0.0,0
2024-05-15,00:45,57.6,44.9,,57.6,62.6,7.3,5.9,329,0.0,0
2024-05-15,00:50,58.1,44.7,,58.1,60.9,8.3,5.7,321,0.0,0
2024-05-15,00:55,58.2,44.8,,58.2,61.0,7.5,5.4,310,0.0,0
2024-05-15,01:00,58.3,44.8,,58.3,60.6,7.9,6,315,0.0,0
2024-05-15,01:05,57.6,45.1,,57.6,63.2,9.5,6.9,304,0.0,0
2024-05-15,01:10,57.8,44.9,,57.8,62.1,9.3,7.8,324,0.0,0
2024-05-15,01:15,57,45.1,,57,64.4,8.9,6.2,326,0.0,0
2024-05-15,01:20,56.5,45.4,,56.5,66.3,7.8,6.5,324,0.0,0
2024-05-15,01:25,56.5,45.5,,56.5,66.6,7.8,5.5,299,0.0,0
2024-05-15,01:30,56.4,45.4,,56.4,66.6,4.9,3.3,285,0.0,0
2024-05-15,01:35,56.8,45,,56.8,64.6,3.2,1.5,123,0.0,0
2024-05-15,01:40,57,45,,57,64.0,10.2,5.4,99,0.0,0
2024-05-15,01:45,58,45.1,,58,62.1,10.2,6.3,91,0.0,0
2024-05-15,01:50,58.4,45.2,,58.4,61.5,4.5,2.6,79,0.0,0
2024-05-15,01:55,58.1,45.3,,58.1,62.2,6.8,3.1,77,0.0,0
2024-05-15,02:00,57.3,45.5,,57.3,64.7,5.2,3.1,325,0.0,0
2024-05-15,02:05,57.2,45.6,,57.2,65.2,5.3,1.7,5,0.0,0
2024-05-15,02:10,57.2,45.7,,57.2,65.3,6.5,5.5,2,0.0,0
2024-05-15,02:15,55.8,45.8,,55.8,69.3,9.1,7.5,348,0.0,0
2024-05-15,02:20,55.4,45.6,,55.4,69.7,10.6,8.1,337,0.0,0
2024-05-15,02:25,53.9,46.1,,53.9,74.8,8.9,7.2,320,0.0,0
2024-05-15,02:30,54,46.1,,54,74.6,8.8,6,343,0.0,0
2024-05-15,02:35,54.6,45.7,,54.6,71.9,4.9,2.6,321,0.0,0
2024-05-15,02:40,54.1,45.9,,54.1,73.7,9,5.4,294,0.0,0
2024-05-15,02:45,54.8,45.9,,54.8,72.0,8,6,336,0.0,0
2024-05-15,02:50,55.5,45.9,,55.5,70.1,6.7,5.4,347,0.0,0
2024-05-15,02:55,54.7,46.1,,54.7,72.7,6.4,5,332,0.0,0
2024-05-15,03:00,54.1,46.4,,54.1,75.1,9.9,7.9,325,0.0,0
2024-05-15,03:05,55.3,46.3,,55.3,71.7,9.5,6.9,2,0.0,0
2024-05-15,03:10,55.8,46.3,,55.8,70.5,6.6,5.1,1,0.0,0
2024-05-15,03:15,55.5,46.6,,55.5,71.8,7,4.9,328,0.0,0
2024-05-15,03:20,53.7,46.9,,53.7,77.8,7.7,6.2,294,0.0,0
2024-05-15,03:25,54.1,46.4,,54.1,75.2,8.4,6.3,310,0.0,0
2024-05-15,03:30,53.9,46.2,,53.9,75.3,8.6,6.1,337,0.0,0
2024-05-15,03:35,53.9,46,,53.9,74.3,10,7.5,344,0.0,0
2024-05-15,03:40,51.9,46.3,,51.9,81.0,9.8,8.3,306,0.0,0
2024-05-15,03:45,53,46,,53,77.3,11.9,8.7,335,0.0,0
2024-05-15,03:50,53.6,45.7,,53.6,74.6,12.7,10.4,346,0.0,0
2024-05-15,03:55,53,45.6,,53,76.1,10.9,8.4,338,0.0,0
2024-05-15,04:00,52.3,45.8,,52.3,78.5,14.1,10.9,332,0.0,0
2024-05-15,04:05,51.7,45.8,,51.7,80.2,17.4,11.6,328,0.0,0
2024-05-15,04:10,51.6,45.5,,51.6,79.5,18,12.6,332,0.0,0
2024-05-15,04:15,52,45.4,,52,78.1,14.8,12.4,322,0.0,0
2024-05-15,04:20,52.7,45.4,,52.7,76.3,17.7,12.3,315,0.0,0
2024-05-15,04:25,52.8,45.4,,52.8,75.9,14.5,11.1,314,0.0,0
2024-05-15,04:30,53,45.3,,53,75.2,14.1,11.3,324,0.0,0
2024-05-15,04:35,52.6,45.5,,52.6,76.8,11.9,9.8,321,0.0,0
2024-05-15,04:40,52.4,45.4,,52.4,77.0,13.1,10.3,315,0.0,0
2024-05-15,04:45,52.2,45.6,,52.2,78.0,12.8,9.1,308,0.0,0
2024-05-15,04:50,52,45.6,,52,78.8,11.9,8.7,303,0.0,0
2024-05-15,04:55,51.5,45.5,,51.5,80.1,10.8,7.8,298,0.0,0
2024-05-15,05:00,51.7,45.4,,51.7,79.1,8.3,6.9,301,0.0,0
2024-05-15,05:05,50.9,45.4,,50.9,81.2,8,6.6,290,0.0,0
2024-05-15,05:10,50.6,45.3,,50.6,82,7.9,6.7,287,0.0,0
2024-05-15,05:15,51.2,45.1,,51.2,79.4,8.9,6.4,305,0.0,0
2024-05-15,05:20,50.7,45.1,,50.7,81.2,8.2,6.9,300,0.0,0
2024-05-15,05:25,50.1,44.9,,50.1,82.3,8.3,6.9,275,0.0,0
2024-05-15,05:30,51,44.9,,51,79.5,10.8,8.9,281,0.0,0
2024-05-15,05:35,50.4,45,,50.4,81.7,9.5,7.4,284,0.0,0
2024-05-15,05:40,50.6,44.9,,50.6,80.9,10.5,7.7,271,0.0,0.00018
2024-05-15,05:45,51,45,,51,79.8,10.2,8,285,0.0,0.0006
2024-05-15,05:50,50.2,45.2,,50.2,83.1,8.7,7.4,289,0.0,0.00168
2024-05-15,05:55,50,45.2,,50,83.6,8.6,7.2,288,0.0,0.00336
2024-05-15,06:00,49.8,45.1,,49.8,83.8,7.9,6.3,299,0.0,0.00342
2024-05-15,06:05,50.3,45.1,,50.3,82.4,7.5,6,325,0.0,0.00342
2024-05-15,06:10,50.1,45.2,,50.1,83,8.4,6.5,313,0.0,0.00384
2024-05-15,06:15,49.9,45.3,,49.9,84.3,8.9,7.3,299,0.0,0.00642
2024-05-15,06:20,50.1,45.3,,50.1,83.7,7.2,5.8,303,0.0,0.01122
2024-05-15,06:25,50,45.6,,50,84.8,7.5,6.2,299,0.0,0.01368
2024-05-15,06:30,50.8,45.7,,50.8,82.5,7.8,6.5,300,0.0,0.0252
2024-05-15,06:35,51.3,46.4,,51.3,83.4,7.8,6.3,289,0.0,0.03054
2024-05-15,06:40,52.5,47.1,,52.5,81.8,9,7,286,0.0,0.03426
2024-05-15,06:45,53.6,47.6,,53.6,80.1,8.5,7.1,294,0.0,0.0384
2024-05-15,06:50,55.3,48.2,,55.3,76.9,13.4,8.6,322,0.0,0.04266
2024-05-15,06:55,56.7,48.4,,56.7,73.8,13.6,10.3,326,0.0,0.04674
2024-05-15,07:00,57.6,48.8,,57.6,72.2,12.5,9.8,319,0.0,0.051
2024-05-15,07:05,58.4,49.3,,58.4,71.7,13.5,10.2,331,0.0,0.05562
2024-05-15,07:10,58.9,49.4,,58.9,70.8,14.3,11.8,333,0.0,0.0603
2024-05-15,07:15,59.5,49.7,,59.5,69.8,14.9,11.1,340,0.0,0.0648
2024-05-15,07:20,60.4,50,,60.4,68.4,15.6,11.1,336,0.0,0.0696
2024-05-15,07:25,61,50.2,,61,67.7,15.8,11.3,330,0.0,0.0744
2024-05-15,07:30,61.4,50.4,,61.4,67.0,13.6,10.7,331,0.0,0.0789
2024-05-15,07:35,61.4,50.7,,61.4,67.8,14.4,11.3,323,0.0,0.08376
2024-05-15,07:40,62,50.5,,62,66.2,17.4,12.4,344,0.0,0.08868
2024-05-15,07:45,63.2,50.6,,63.2,63.5,15.5,11.5,345,0.0,0.09336
2024-05-15,07:50,63.6,51.1,,63.6,63.7,16,11.4,338,0.0,0.09834
2024-05-15,07:55,64.1,51.2,,64.1,62.7,15.5,12.1,345,0.0,0.10308
2024-05-15,08:00,65,51.2,,65,60.9,15.8,12.5,352,0.0,0.10824
2024-05-15,08:05,65.6,51.4,,65.6,60.2,15.4,11.5,346,0.0,0.11286
2024-05-15,08:10,65.7,51.5,,65.7,60.0,17.2,12.2,349,0.0,0.1176
2024-05-15,08:15,66.8,51.9,,66.8,58.7,13.4,10,337,0.0,0.12282
2024-05-15,08:20,66.8,52.1,,66.8,59.1,14.1,11.6,329,0.0,0.12756
2024-05-15,08:25,67.4,51.9,,67.4,57.6,16.1,11.7,330,0.0,0.13242
2024-05-15,08:30,68,51.7,,68,56.0,14.9,11.4,337,0.0,0.13716
2024-05-15,08:35,68.4,52.4,,68.4,56.6,16.2,10.4,329,0.0,0.1419
2024-05-15,08:40,68.2,52.3,,68.2,56.8,14.5,10.9,329,0.0,0.1473
2024-05-15,08:45,68.2,52.2,,68.2,56.5,15.2,11.7,326,0.0,0.15498
2024-05-15,08:50,68.8,51.8,,68.8,54.7,14.5,10.8,334,0.0,0.16458
2024-05-15,08:55,69.5,51.9,,69.5,53.6,15.8,9.5,326,0.0,0.17154
2024-05-15,09:00,69.9,52.3,,69.9,53.6,15.8,10.6,341,0.0,0.17946
2024-05-15,09:05,69.5,51.8,,69.5,53.4,15.9,10.6,342,0.0,0.12882
2024-05-15,09:10,68.9,51.6,,68.9,54.1,15.1,11.1,342,0.0,0.10494
2024-05-15,09:15,69.3,51.6,,69.3,53.4,15,11.1,350,0.0,0.17514
2024-05-15,09:20,69.1,51.3,,69.1,53.1,16.7,11.1,347,0.0,0.15444
2024-05-15,09:25,69.5,51.2,,69.5,52.0,17.4,11,347,0.0,0.14616
2024-05-15,09:30,70.1,52,,70.1,52.6,15.8,9.9,347,0.0,0.1926
2024-05-15,09:35,70.1,52.2,,70.1,53.2,14.2,10.4,348,0.0,0.19464
2024-05-15,09:40,70.7,52.1,,70.7,51.7,16,10,337,0.0,0.19854
2024-05-15,09:45,70.4,51.9,,70.4,51.9,15.2,11.7,353,0.0,0.1965
2024-05-15,09:50,71.3,52,,71.3,50.6,14.8,11.5,353,0.0,0.207
2024-05-15,09:55,71.3,52.1,,71.3,50.6,16.2,11.1,346,0.0,0.21048
2024-05-15,10:00,72.3,52.4,,72.3,49.7,16,10.5,348,0.0,0.21414
2024-05-15,10:05,71.7,51.8,,71.7,49.4,17.6,11.2,5,0.0,0.2175
2024-05-15,10:10,71.6,52.1,,71.6,50.2,18,10.8,353,0.0,0.22068
2024-05-15,10:15,72.5,52.4,,72.5,49.3,16.4,10,357,0.0,0.22374
2024-05-15,10:20,72.5,52.4,,72.5,49.3,15,10.4,354,0.0,0.22686
2024-05-15,10:25,72.3,52.4,,72.3,49.6,17.6,11.5,349,0.0,0.22992
2024-05-15,10:30,72.4,52.3,,72.4,49.3,15.9,12.5,5,0.0,0.2331
2024-05-15,10:35,72.4,52.3,,72.4,49.2,13.6,9.6,354,0.0,0.23598
2024-05-15,10:40,72.9,52.7,,72.9,49.2,17.7,10.4,356,0.0,0.23856
2024-05-15,10:45,72.4,52.5,,72.4,49.6,16.7,11,15,0.0,0.2415
2024-05-15,10:50,72.6,52.4,,72.6,49.1,18.4,11.7,5,0.0,0.2442
2024-05-15,10:55,72,52.2,,72,49.6,15.4,11,13,0.0,0.2472
2024-05-15,11:00,73,52,,73,47.7,13.7,9.5,352,0.0,0.2493
2024-05-15,11:05,72.6,51.6,,72.6,47.6,15.6,10.3,5,0.0,0.25248
2024-05-15,11:10,73.6,52.1,,73.6,46.8,15.8,10.1,13,0.0,0.25602
2024-05-15,11:15,72.9,51.4,,72.9,46.8,15.6,10.3,17,0.0,0.2589
2024-05-15,11:20,73.8,51.4,,73.8,45.4,14.5,10.4,356,0.0,0.25938
2024-05-15,11:25,74.7,52,,74.7,45.1,13.9,10.7,3,0.0,0.26124
2024-05-15,11:30,73.8,51.9,,73.8,46.3,15.8,10.8,3,0.0,0.2634
2024-05-15,11:35,74.2,51.7,,74.2,45.4,16.1,9.8,0,0.0,0.26412
2024-05-15,11:40,74,52.1,,74,46.2,15.6,9.7,352,0.0,0.2652
2024-05-15,11:45,74,51.6,,74,45.5,16.2,11.3,16,0.0,0.26736
2024-05-15,11:50,73.9,51.5,,73.9,45.6,16,7.9,29,0.0,0.26862
2024-05-15,11:55,74.1,51.7,,74.1,45.4,18.3,12,2,0.0,0.26958
2024-05-15,12:00,74.2,51.8,,74.2,45.6,15.8,10.2,7,0.0,0.27078
2024-05-15,12:05,73,51.8,,73,47.4,12.5,7.5,2,0.0,0.27204
2024-05-15,12:10,74.2,51.5,,74.2,45.0,13.8,7.2,6,0.0,0.2733
2024-05-15,12:15,74.4,51.5,,74.4,44.8,9.6,5.3,339,0.0,0.27378
2024-05-15,12:20,74.4,52,,74.4,45.5,13.7,9.1,359,0.0,0.27474
2024-05-15,12:25,73.9,52.2,,73.9,46.5,17.1,9.9,6,0.0,0.27498
2024-05-15,12:30,74.3,52,,74.3,45.6,11.2,7.7,8,0.0,0.27522
2024-05-15,12:35,75.5,52.2,,75.5,44.2,14.9,7.8,6,0.0,0.276
2024-05-15,12:40,74.4,52.1,,74.4,45.8,14.9,8.8,349,0.0,0.27726
2024-05-15,12:45,75.3,52.2,,75.3,44.5,12.6,8.9,14,0.0,0.27498
2024-05-15,12:50,74,51.8,,74,45.9,14,8.3,18,0.0,0.27774
2024-05-15,12:55,74.4,51.7,,74.4,45.0,11.5,5.7,26,0.0,0.28314
2024-05-15,13:00,75.3,52.9,,75.3,45.6,17.2,11.3,8,0.0,0.28692
2024-05-15,13:05,75.1,53.4,,75.1,46.8,18.1,10.4,31,0.0,0.28236
2024-05-15,13:10,74.9,53.4,,74.9,47.0,15.3,8.1,45,0.0,0.28014
2024-05-15,13:15,74.5,53,,74.5,47.1,13.9,8,73,0.0,0.28206
2024-05-15,13:20,75.1,52.6,,75.1,45.6,10.3,5.9,97,0.0,0.2832
2024-05-15,13:25,76.7,53.5,,76.7,44.5,14.1,8.3,46,0.0,0.28704
2024-05-15,13:30,75.9,53.5,,75.9,45.8,13.6,9.3,28,0.0,0.29604
2024-05-15,13:35,75.7,53.3,,75.7,45.8,18.7,8.2,26,0.0,0.22356
2024-05-15,13:40,75.2,53.1,,75.2,46.2,15.4,9.9,16,0.0,0.20418
2024-05-15,13:45,75,53.3,,75,46.8,14.6,10.4,50,0.0,0.2193
2024-05-15,13:50,74.6,53.4,,74.6,47.7,17.2,12.3,24,0.0,0.24936
2024-05-15,13:55,74.6,53.1,,74.6,47.1,19,11.5,21,0.0,0.26718
2024-05-15,14:00,76.7,53.3,,76.7,44.3,16.5,10.5,44,0.0,0.24972
2024-05-15,14:05,74.3,52.9,,74.3,47.2,21.4,11.1,49,0.0,0.08994
2024-05-15,14:10,73.2,52,,73.2,47.3,17.8,13.2,47,0.0,0.04554
2024-05-15,14:15,73,51.2,,73,46.3,17.2,11.8,44,0.0,0.03024
2024-05-15,14:20,72.4,50.9,,72.4,46.7,27.4,17.2,36,0.0,0.01554
2024-05-15,14:25,71.9,50.4,,71.9,46.6,23.4,15.3,51,0.0,0.00882
2024-05-15,14:30,71.5,49.7,,71.5,46.1,27.5,19.7,30,0.0,0.00534
2024-05-15,14:35,71,49.3,,71,46.4,36.9,26,18,0.0,0.00258
2024-05-15,14:40,67.4,51.4,,67.4,56.4,36.2,27,2,0.01,0.00168
2024-05-15,14:45,53.5,53.8,,53.5,101.3,27.2,21.3,344,0.09,0.00114
2024-05-15,14:50,51.7,51.8,,51.7,100.3,,,,0.06,0.0009
2024-05-15,14:55,52.3,52.2,,52.3,99.4,,,,0.04,0.0009
2024-05-15,15:00,53.2,52.9,,53.2,98.8,,,,0.01,0.0009
2024-05-15,15:05,53.3,53.3,,53.3,99.8,,,,0.0,0.0009
2024-05-15,15:10,51.9,52.1,,51.9,100.8,,,,0.0,0.00108
2024-05-15,15:15,51.2,51.4,,51.2,100.6,,,,0.02,0.00156
2024-05-15,15:20,51,51.1,,51,100.3,,,,0.02,0.0024
2024-05-15,15:25,50.6,50.6,,50.6,100.2,,,,0.02,0.00408
2024-05-15,15:30,51.1,51.1,,51.1,99.9,,,,0.0,0.00582
2024-05-15,15:35,57.4,51.9,,57.4,81.9,,,,0.0,0.00774
2024-05-15,15:40,57.2,52.5,,57.2,84.3,,,,0.0,0.01098
2024-05-15,15:45,57.8,53.1,,57.8,84.0,,,,0.0,0.01806
2024-05-15,15:50,58,53.5,,58,84.8,,,,0.0,0.01272
2024-05-15,15:55,58.1,53.6,,58.1,85.0,,,,0.0,0.00774
2024-05-15,16:00,54.2,52.9,,54.2,95.4,,,,0.01,0.00678
2024-05-15,16:05,51.9,52,,51.9,100.2,,,,0.01,0.00996
2024-05-15,16:10,53.2,51.8,,53.2,95.1,,,,0.01,0.01122
2024-05-15,16:15,56.3,53,,56.3,88.6,,,,0.0,0.00852
2024-05-15,16:20,56,53,,56,89.7,,,,0.0,0.00726
2024-05-15,16:25,55.7,53.2,,55.7,91.4,,,,0.01,0.00768
2024-05-15,16:30,55.5,53.2,,55.5,91.9,,,,0.0,0.0072
2024-05-15,16:35,55.3,53.2,,55.3,92.5,,,,0.0,0.00615
2024-05-15,16:40,54,52.9,,54,96.1,,,,0.0,0.0063
2024-05-15,16:45,55.6,52.8,,55.6,90.3,,,,0.01,0.00702
2024-05-15,16:50,55.4,52.6,,55.4,90.2,,,,0.0,0.01032
2024-05-15,16:55,55.7,52.1,,55.7,87.7,,,,0.0,0.01506
2024-05-15,17:00,55.8,51.6,,55.8,85.9,,,,0.0,0.01986
2024-05-15,17:05,55.8,51.6,,55.8,85.9,,,,0.0,0.02712
2024-05-15,17:10,55.9,51.9,,55.9,86.5,,,,0.0,0.03558
2024-05-15,17:15,56.2,52.1,,56.2,86.0,,,,0.0,0.04464
2024-05-15,17:20,57,52.3,,57,84.2,,,,0.0,0.05838
2024-05-15,17:25,57.8,52.4,,57.8,82.2,,,,0.0,0.0657
2024-05-15,17:30,58.2,52.4,,58.2,81.0,,,,0.0,0.06948
2024-05-15,17:35,58.4,52.7,,58.4,81.3,18.1,15.8,5,0.0,0.05892
2024-05-15,17:40,58.6,53.1,,58.6,81.7,20.5,15.8,6,0.0,0.06066
2024-05-15,17:45,59.7,53.5,,59.7,79.7,20.5,15.4,4,0.0,0.10974
2024-05-15,17:50,59.9,54,,59.9,80.8,17.7,13.4,6,0.0,0.10854
2024-05-15,17:55,60.1,54.1,,60.1,80.8,20,15.5,10,0.0,0.0987
2024-05-15,18:00,60.5,54.2,,60.5,79.7,18.7,14.2,15,0.0,0.09228
2024-05-15,18:05,60.5,53.9,,60.5,78.9,19.3,13.7,15,0.0,0.04788
2024-05-15,18:10,60.2,53.4,,60.2,78.2,17.8,14.8,13,0.0,0.03864
2024-05-15,18:15,60.1,53.4,,60.1,78.4,20.4,13.3,10,0.0,0.03876
2024-05-15,18:20,60.1,53.1,,60.1,77.6,17.1,12.1,7,0.0,0.0291
2024-05-15,18:25,60.2,53.1,,60.2,77.4,17.3,12.5,6,0.0,0.03564
2024-05-15,18:30,59.9,53.3,,59.9,78.6,16.4,11.5,9,0.0,0.02202
2024-05-15,18:35,59.6,53.5,,59.6,80.2,14.9,10.4,10,0.0,0.01548
2024-05-15,18:40,59.7,53.6,,59.7,80.3,19.8,11.6,12,0.0,0.01482
2024-05-15,18:45,59.6,53.2,,59.6,79.3,13,8.3,25,0.0,0.01128
2024-05-15,18:50,58.9,53.2,,58.9,81.3,13.2,8.3,47,0.0,0.00774
2024-05-15,18:55,58.6,53.1,,58.6,82.0,10.9,6.3,47,0.0,0.0072
2024-05-15,19:00,58.5,52.9,,58.5,81.6,11.5,7.3,39,0.0,0.00522
2024-05-15,19:05,58.4,52.6,,58.4,81.0,11.4,7.6,50,0.0,0.0036
2024-05-15,19:10,58.4,52.5,,58.4,81.0,14,9.3,36,0.0,0.00258
2024-05-15,19:15,58.1,52.1,,58.1,80.4,20.3,13.2,18,0.0,0.00282
2024-05-15,19:20,57.9,52,,57.9,80.5,18.5,13.2,17,0.0,0.00294
2024-05-15,19:25,57.8,51.8,,57.8,80.2,20.8,14.3,14,0.0,0.00336
2024-05-15,19:30,57.6,51.8,,57.6,81.0,15.3,11.7,2,0.0,0.00222
2024-05-15,19:35,57.5,51.8,,57.5,81.3,14.1,11.1,345,0.0,0.00276
2024-05-15,19:40,57.3,51.8,,57.3,81.9,12.5,10,341,0.0,0.00402
2024-05-15,19:45,57.1,51.9,,57.1,82.6,13,9,2,0.0,0.00186
2024-05-15,19:50,56.8,51.7,,56.8,83.2,20.8,14.3,12,0.0,0.00084
2024-05-15,19:55,56.8,51.4,,56.8,82.1,19.7,14.6,13,0.0,0.00036
2024-05-15,20:00,56.9,51.3,,56.9,81.5,17.2,13.6,8,0.0,0.00006
2024-05-15,20:05,57.1,51,,57.1,80.0,14.5,9.6,15,0.0,0
2024-05-15,20:10,57.1,50.9,,57.1,79.7,9.6,5.8,46,0.0,0
2024-05-15,20:15,57.1,51,,57.1,79.9,8.8,5.6,76,0.0,0
2024-05-15,20:20,57.1,51,,57.1,80.3,11.4,7.2,61,0.0,0
2024-05-15,20:25,57.2,50.9,,57.2,79.4,11.1,7.8,41,0.0,0
2024-05-15,20:30,57.1,51,,57.1,80.3,14.7,10.9,21,0.0,0
2024-05-15,20:35,56.9,51.1,,56.9,80.9,21.4,12.3,22,0.0,0
2024-05-15,20:40,56.8,51.3,,56.8,81.8,16.2,11.6,28,0.0,0
2024-05-15,20:45,56.7,51.4,,56.7,82.1,15.5,10.3,42,0.0,0
2024-05-15,20:50,56.7,51.4,,56.7,82.2,15.8,10.8,41,0.0,0
2024-05-15,20:55,56.4,51.8,,56.4,84.3,15.9,9.9,34,0.0,0
2024-05-15,21:00,56.2,51.8,,56.2,85.2,12,8.6,28,0.0,0
2024-05-15,21:05,56.1,51.9,,56.1,85.7,10,6.4,48,0.0,0
2024-05-15,21:10,56.2,51.8,,56.2,85.1,10.6,6.8,47,0.0,0
2024-05-15,21:15,56.2,51.8,,56.2,85.2,13.2,8.8,46,0.0,0
2024-05-15,21:20,56.1,51.9,,56.1,85.8,15.8,9.7,31,0.0,0
2024-05-15,21:25,55.9,51.8,,55.9,86.1,21.3,15.5,16,0.0,0
2024-05-15,21:30,55.8,51.8,,55.8,86.4,17.8,14.7,11,0.0,0
2024-05-15,21:35,55.8,51.6,,55.8,86,19.1,15.1,13,0.0,0
2024-05-15,21:40,55.6,51.5,,55.6,86.3,20.6,15.3,13,0.0,0
2024-05-15,21:45,55.3,51.5,,55.3,87.1,19,15.5,10,0.0,0
2024-05-15,21:50,54.9,51.6,,54.9,88.6,19.6,14.9,7,0.0,0
2024-05-15,21:55,54.6,51.5,,54.6,89.5,18.9,15,2,0.0,0
2024-05-15,22:00,54.4,51.4,,54.4,89.8,19.1,13.3,357,0.0,0
2024-05-15,22:05,54.3,51.5,,54.3,90.3,15.3,11.5,353,0.0,0
2024-05-15,22:10,54.2,51.5,,54.2,90.5,16.8,11.1,351,0.0,0
2024-05-15,22:15,53.8,51.5,,53.8,92.0,12.7,9.2,350,0.0,0
2024-05-15,22:20,53.5,51.5,,53.5,93,13.5,10.5,356,0.0,0
2024-05-15,22:25,53.4,51.5,,53.4,93.4,16.2,12.1,5,0.0,0
2024-05-15,22:30,53,51.6,,53,94.9,13.6,11.3,9,0.01,0
2024-05-15,22:35,52.8,51.7,,52.8,96.2,15.4,10.8,11,0.0,0
2024-05-15,22:40,52.9,51.5,,52.9,95.1,13.6,9.8,5,0.0,0
2024-05-15,22:45,52.8,51.4,,52.8,94.9,11,8,354,0.0,0
2024-05-15,22:50,52.8,51.3,,52.8,94.7,12.1,8.6,354,0.0,0
2024-05-15,22:55,52.7,51.3,,52.7,95.0,9.4,7.8,11,0.0,0
2024-05-15,23:00,52.7,51.4,,52.7,95.1,9.9,7.1,17,0.0,0
2024-05-15,23:05,52.6,51.3,,52.6,95.2,7.2,5.3,15,0.0,0
2024-05-15,23:10,52.6,51.4,,52.6,95.5,8.2,6.5,14,0.0,0
2024-05-15,23:15,52.4,51.2,,52.4,95.6,8.4,6.8,15,0.0,0
2024-05-15,23:20,52.3,51.1,,52.3,95.8,8.2,6.6,11,0.0,0
2024-05-15,23:25,52.2,51,,52.2,96.0,9.1,6.8,1,0.0,0
2024-05-15,23:30,52.1,50.9,,52.1,95.7,7.8,6,3,0.0,0
2024-05-15,23:35,52.1,51,,52.1,96.1,7.7,6.4,358,0.0,0
2024-05-15,23:40,51.7,50.8,,51.7,96.5,9.8,7.6,353,0.0,0
2024-05-15,23:45,51.7,50.5,,51.7,96.0,10,7.4,350,0.0,0
2024-05-15,23:50,51.4,50.4,,51.4,96.4,8.4,6.3,347,0.0,0
2024-05-15,23:55,51.2,50.2,,51.2,96.4,8.4,7.2,347,0.0,0
2024-05-16,00:00,50.8,50.1,,50.8,97.5,8.4,6.4,341,0.0,0
2024-05-16,00:05,50.3,49.7,,50.3,97.9,6.2,5.2,322,0.0,0
2024-05-16,00:10,49.7,48.1,,49.7,94.4,7.3,6,310,0.0,0
2024-05-16,00:15,49.6,49.2,,49.6,98.4,8.4,6.3,327,0.0,0
2024-05-16,00:20,49.7,49,,49.7,97.5,9.3,7.1,325,0.0,0
2024-05-16,00:25,49.8,49,,49.8,97.3,10.8,8.3,311,0.0,0
2024-05-16,00:30,49.6,48.9,,49.6,97.7,9.4,7.7,300,0.0,0
2024-05-16,00:35,49.9,48.9,,49.9,96.5,10,7.5,306,0.0,0
2024-05-16,00:40,49.9,49,,49.9,96.7,8.2,5.7,321,0.0,0
2024-05-16,00:45,50,49,,50,96.2,7.4,5.7,319,0.0,0
2024-05-16,00:50,50,49,,50,96.0,7.9,6.1,304,0.0,0
2024-05-16,00:55,49.9,48.9,,49.9,96.1,7.4,6,291,0.0,0
2024-05-16,01:00,50,48.9,,50,95.9,6.7,5.7,283,0.0,0
2024-05-16,01:05,50.4,49,,50.4,94.9,6.4,5.1,278,0.0,0
2024-05-16,01:10,50.5,49.1,,50.5,94.9,7,5.5,288,0.0,0
2024-05-16,01:15,50.4,49.2,,50.4,95.4,7.2,6.3,286,0.0,0
2024-05-16,01:20,50.5,49.2,,50.5,95.2,6.9,5,284,0.0,0
2024-05-16,01:25,50.4,49.2,,50.4,95.6,6.5,5.6,295,0.0,0
2024-05-16,01:30,50.9,49.2,,50.9,93.9,8.2,5.8,312,0.0,0
2024-05-16,01:35,50.8,49.2,,50.8,94.4,5.5,5,343,0.0,0
2024-05-16,01:40,50.7,49.3,,50.7,94.7,5.6,4.9,347,0.0,0
2024-05-16,01:45,50.4,49.3,,50.4,95.8,7.7,5.8,341,0.0,0
2024-05-16,01:50,50.2,49.4,,50.2,97.2,8.7,7.4,330,0.0,0
2024-05-16,01:55,50.4,49.4,,50.4,96.5,9.1,7,319,0.0,0
2024-05-16,02:00,50.5,49.4,,50.5,96.1,8.8,7.2,318,0.0,0
2024-05-16,02:05,50.4,49.4,,50.4,96.5,7.6,6.2,313,0.0,0
2024-05-16,02:10,50,49.3,,50,97.3,8.2,6.7,314,0.0,0
2024-05-16,02:15,50,49.2,,50,97,7,5.3,322,0.0,0
2024-05-16,02:20,49.7,49,,49.7,97.4,8.1,6.8,302,0.0,0
2024-05-16,02:25,49.5,48.8,,49.5,97.2,9.3,7.2,299,0.0,0
2024-05-16,02:30,49.8,48.7,,49.8,95.8,12.3,8.1,303,0.0,0
2024-05-16,02:35,50.4,48.7,,50.4,94.1,11,9.1,300,0.0,0
2024-05-16,02:40,49.6,48.8,,49.6,97.0,9.3,6.7,286,0.0,0
2024-05-16,02:45,49.6,48.5,,49.6,95.8,7.2,6.1,288,0.0,0
2024-05-16,02:50,49.9,48.5,,49.9,95.0,6.6,5.7,284,0.0,0
2024-05-16,02:55,50,48.7,,50,95.1,7.2,5.9,279,0.0,0
2024-05-16,03:00,50.3,48.7,,50.3,94.0,6.9,6,274,0.0,0
2024-05-16,03:05,50.4,48.8,,50.4,94.3,8.6,6.8,290,0.0,0
2024-05-16,03:10,50.3,48.9,,50.3,94.9,9.1,7.5,294,0.0,0
2024-05-16,03:15,50.4,48.9,,50.4,94.7,8.5,7.4,296,0.0,0
2024-05-16,03:20,50.5,48.9,,50.5,94.4,8.3,6.8,294,0.0,0
2024-05-16,03:25,50.6,49.1,,50.6,94.8,7.5,6.2,287,0.0,0
2024-05-16,03:30,50.7,49.3,,50.7,94.7,7.7,6.5,283,0.0,0
2024-05-16,03:35,50.9,49.3,,50.9,94.4,8.2,6.6,282,0.0,0
2024-05-16,03:40,50.9,49.4,,50.9,94.7,7.7,6.6,288,0.0,0
2024-05-16,03:45,50.8,49.5,,50.8,95.4,7.8,6.1,297,0.0,0
2024-05-16,03:50,50.8,49.5,,50.8,95.3,6.8,5.5,302,0.0,0
2024-05-16,03:55,50.8,49.6,,50.8,95.5,5.1,4.1,295,0.0,0
2024-05-16,04:00,51,49.5,,51,94.6,6.4,5,295,0.0,0
2024-05-16,04:05,51.2,49.6,,51.2,94.1,7.7,6.5,290,0.0,0
2024-05-16,04:10,51.1,49.6,,51.1,94.4,8.1,6.9,292,0.0,0
2024-05-16,04:15,50.8,49.6,,50.8,95.7,8.2,7.1,305,0.0,0
2024-05-16,04:20,51,49.6,,51,94.9,9.4,7.3,321,0.0,0
2024-05-16,04:25,51,49.6,,51,94.9,8.2,6.8,328,0.0,0
2024-05-16,04:30,50.9,49.6,,50.9,95.2,8.1,7,317,0.0,0
2024-05-16,04:35,50.7,49.7,,50.7,96.2,8.9,7.5,316,0.0,0
2024-05-16,04:40,50.7,49.5,,50.7,95.7,10.3,8.3,322,0.0,0
2024-05-16,04:45,50.9,49.6,,50.9,95.2,12.1,9.1,329,0.0,0